2024-174A

Last updated on Tue Oct 08 2024 00:02:04 GMT+0000 (Coordinated Universal Time)

1 61238U 24174A 24281.56207877 .00017971 00000+0 91920-3 0 9995 2 61238 97.4567 286.6391 0013691 241.1906 118.7953 15.16618232 1918
UTC large
Height (km)
Speed (km/s)
/
Latitude / Longitude
Inclination (degrees)
Orbital Period (minutes)
Azimuth
Elevation
Range (km)
Doppler Factor

Next 0 passes for location: London (51.5072 / 0.1276)

Sorry there are no passes over London.